Time,TemperatureF,DewpointF,PressureIn,WindDirection,WindDirectionDegrees,WindSpeedMPH,WindSpeedGustMPH,Humidity,HourlyPrecipIn,Conditions,Clouds,dailyrainin,SolarRadiationWatts/m^2,SoftwareType,DateUTC
2016-02-06 00:00:00,28.8,24.3,30.34,NE,51,0.0,0.0,83,0.00,,,0.00,0,wxd,2016-02-06 05:00:00,
2016-02-06 00:05:00,28.8,24.6,30.34,NE,51,0.0,0.0,84,0.00,,,0.00,0,wxd,2016-02-06 05:05:00,
2016-02-06 00:10:00,28.7,24.5,30.34,NE,51,0.0,0.0,84,0.00,,,0.00,0,wxd,2016-02-06 05:10:00,
2016-02-06 00:15:00,28.5,24.3,30.34,NE,51,0.0,0.0,84,0.00,,,0.00,0,wxd,2016-02-06 05:15:00,
2016-02-06 00:20:00,28.5,24.3,30.34,NE,51,0.0,0.0,84,0.00,,,0.00,0,wxd,2016-02-06 05:20:00,
2016-02-06 00:25:00,28.5,24.6,30.34,NE,51,0.0,0.0,85,0.00,,,0.00,0,wxd,2016-02-06 05:25:00,
2016-02-06 00:30:00,28.5,24.6,30.34,NE,51,0.0,0.0,85,0.00,,,0.00,0,wxd,2016-02-06 05:30:00,
2016-02-06 00:35:00,28.4,24.5,30.34,NE,51,0.0,0.0,85,0.00,,,0.00,0,wxd,2016-02-06 05:35:00,
2016-02-06 00:40:00,28.4,24.5,30.34,NE,51,0.0,0.0,85,0.00,,,0.00,0,wxd,2016-02-06 05:40:00,
2016-02-06 00:45:00,28.5,24.6,30.34,NE,51,0.0,0.0,85,0.00,,,0.00,0,wxd,2016-02-06 05:45:00,
2016-02-06 00:50:00,28.5,24.6,30.34,NE,51,0.0,0.0,85,0.00,,,0.00,0,wxd,2016-02-06 05:50:00,
2016-02-06 00:55:00,28.4,24.5,30.34,NE,51,0.0,0.0,85,0.00,,,0.00,0,wxd,2016-02-06 05:55:00,
2016-02-06 01:00:00,28.4,24.5,30.34,NE,51,0.0,0.0,85,0.00,,,0.00,0,wxd,2016-02-06 06:00:00,
2016-02-06 01:05:00,28.2,24.3,30.34,NE,51,0.0,0.0,85,0.00,,,0.00,0,wxd,2016-02-06 06:05:00,
2016-02-06 01:10:00,28.2,24.0,30.34,NE,51,0.0,0.0,84,0.00,,,0.00,0,wxd,2016-02-06 06:10:00,
2016-02-06 01:15:00,28.2,24.0,30.34,NE,51,0.0,0.0,84,0.00,,,0.00,0,wxd,2016-02-06 06:15:00,
2016-02-06 01:20:00,28.1,23.6,30.34,NE,51,0.0,0.0,83,0.00,,,0.00,0,wxd,2016-02-06 06:20:00,
2016-02-06 01:25:00,28.1,23.3,30.33,NE,51,0.0,0.0,82,0.00,,,0.00,0,wxd,2016-02-06 06:25:00,
2016-02-06 01:30:00,28.1,23.3,30.33,NE,51,0.0,0.0,82,0.00,,,0.00,0,wxd,2016-02-06 06:30:00,
2016-02-06 01:35:00,27.9,22.8,30.33,NE,51,0.0,0.0,81,0.00,,,0.00,0,wxd,2016-02-06 06:35:00,
2016-02-06 01:40:00,27.9,22.8,30.34,NE,51,0.0,0.0,81,0.00,,,0.00,0,wxd,2016-02-06 06:40:00,
2016-02-06 01:45:00,27.8,22.4,30.34,NE,51,0.0,0.0,80,0.00,,,0.00,0,wxd,2016-02-06 06:45:00,
2016-02-06 01:50:00,27.8,22.2,30.34,NE,51,0.0,0.0,79,0.00,,,0.00,0,wxd,2016-02-06 06:50:00,
2016-02-06 01:55:00,27.6,22.0,30.34,NE,51,0.0,0.0,79,0.00,,,0.00,0,wxd,2016-02-06 06:55:00,
2016-02-06 02:00:00,27.8,22.2,30.34,NE,51,0.0,0.0,79,0.00,,,0.00,0,wxd,2016-02-06 07:00:00,
2016-02-06 02:05:00,27.8,22.7,30.34,NE,51,0.0,0.0,81,0.00,,,0.00,0,wxd,2016-02-06 07:05:00,
2016-02-06 02:10:00,27.9,22.5,30.34,NE,51,0.0,0.0,80,0.00,,,0.00,0,wxd,2016-02-06 07:10:00,
2016-02-06 02:15:00,27.9,22.5,30.34,NE,51,0.0,0.0,80,0.00,,,0.00,0,wxd,2016-02-06 07:15:00,
2016-02-06 02:20:00,27.9,22.8,30.34,NE,51,0.0,0.0,81,0.00,,,0.00,0,wxd,2016-02-06 07:20:00,
2016-02-06 02:25:00,27.9,22.8,30.34,NE,51,0.0,0.0,81,0.00,,,0.00,0,wxd,2016-02-06 07:25:00,
2016-02-06 02:30:00,27.9,22.8,30.34,NE,51,0.0,0.0,81,0.00,,,0.00,0,wxd,2016-02-06 07:30:00,
2016-02-06 02:35:00,27.8,22.2,30.34,NE,51,0.0,0.0,79,0.00,,,0.00,0,wxd,2016-02-06 07:35:00,
2016-02-06 02:45:00,27.8,22.4,30.34,NE,51,0.0,0.0,80,0.00,,,0.00,0,wxd,2016-02-06 07:45:00,
2016-02-06 02:50:00,27.8,22.2,30.34,NE,51,0.0,0.0,79,0.00,,,0.00,0,wxd,2016-02-06 07:50:00,
2016-02-06 02:55:00,27.8,21.8,30.34,NE,51,0.0,0.0,78,0.00,,,0.00,0,wxd,2016-02-06 07:55:00,
2016-02-06 03:00:00,27.6,21.7,30.34,NE,51,0.0,0.0,78,0.00,,,0.00,0,wxd,2016-02-06 08:00:00,
2016-02-06 03:05:00,27.6,21.7,30.34,NE,51,0.0,0.0,78,0.00,,,0.00,0,wxd,2016-02-06 08:05:00,
2016-02-06 03:10:00,27.6,22.3,30.34,NE,51,0.0,0.0,80,0.00,,,0.00,0,wxd,2016-02-06 08:10:00,
2016-02-06 03:15:00,27.5,22.2,30.34,NE,51,0.0,0.0,80,0.00,,,0.00,0,wxd,2016-02-06 08:15:00,
2016-02-06 03:25:00,27.5,22.4,30.34,NE,51,0.0,0.0,81,0.00,,,0.00,0,wxd,2016-02-06 08:25:00,
2016-02-06 03:35:00,27.2,22.4,30.34,NE,51,0.0,0.0,82,0.00,,,0.00,0,wxd,2016-02-06 08:35:00,
2016-02-06 03:40:00,27.0,22.3,30.35,NE,51,0.0,0.0,82,0.00,,,0.00,0,wxd,2016-02-06 08:40:00,
2016-02-06 03:45:00,26.9,22.2,30.35,NE,51,0.0,0.0,82,0.00,,,0.00,0,wxd,2016-02-06 08:45:00,
2016-02-06 03:50:00,26.7,21.7,30.35,NE,51,0.0,0.0,81,0.00,,,0.00,0,wxd,2016-02-06 08:50:00,
2016-02-06 03:55:00,26.7,22.0,30.35,NE,51,0.0,0.0,82,0.00,,,0.00,0,wxd,2016-02-06 08:55:00,
2016-02-06 04:00:00,26.9,22.4,30.35,NE,51,0.0,0.0,83,0.00,,,0.00,0,wxd,2016-02-06 09:00:00,
2016-02-06 04:05:00,27.0,22.8,30.35,NE,51,0.0,0.0,84,0.00,,,0.00,0,wxd,2016-02-06 09:05:00,
2016-02-06 04:10:00,27.0,22.3,30.35,NE,51,0.0,0.0,82,0.00,,,0.00,0,wxd,2016-02-06 09:10:00,
2016-02-06 04:15:00,26.9,22.2,30.35,NE,51,0.0,0.0,82,0.00,,,0.00,0,wxd,2016-02-06 09:15:00,
2016-02-06 04:20:00,26.7,21.4,30.35,NE,51,0.0,0.0,80,0.00,,,0.00,0,wxd,2016-02-06 09:20:00,
2016-02-06 04:30:00,26.7,21.7,30.35,NE,51,0.0,0.0,81,0.00,,,0.00,0,wxd,2016-02-06 09:30:00,
2016-02-06 04:35:00,26.7,21.4,30.35,NE,51,0.0,0.0,80,0.00,,,0.00,0,wxd,2016-02-06 09:35:00,
2016-02-06 04:40:00,26.7,21.1,30.35,NE,51,0.0,0.0,79,0.00,,,0.00,0,wxd,2016-02-06 09:40:00,
2016-02-06 04:45:00,26.6,21.0,30.35,NE,51,0.0,0.0,79,0.00,,,0.00,0,wxd,2016-02-06 09:45:00,
2016-02-06 04:50:00,26.4,20.8,30.35,NE,51,0.0,0.0,79,0.00,,,0.00,0,wxd,2016-02-06 09:50:00,
2016-02-06 04:55:00,26.4,20.8,30.35,NE,51,0.0,0.0,79,0.00,,,0.00,0,wxd,2016-02-06 09:55:00,
2016-02-06 05:00:00,26.4,21.1,30.35,NE,51,0.0,0.0,80,0.00,,,0.00,0,wxd,2016-02-06 10:00:00,
2016-02-06 05:05:00,26.4,21.4,30.35,NE,51,0.0,0.0,81,0.00,,,0.00,0,wxd,2016-02-06 10:05:00,
2016-02-06 05:10:00,26.6,21.6,30.35,NE,51,0.0,0.0,81,0.00,,,0.00,0,wxd,2016-02-06 10:10:00,
2016-02-06 05:15:00,26.6,21.9,30.35,NE,51,0.0,0.0,82,0.00,,,0.00,0,wxd,2016-02-06 10:15:00,
2016-02-06 05:20:00,26.7,22.0,30.35,NE,51,0.0,0.0,82,0.00,,,0.00,0,wxd,2016-02-06 10:20:00,
2016-02-06 05:25:00,26.7,22.0,30.35,NE,51,0.0,0.0,82,0.00,,,0.00,0,wxd,2016-02-06 10:25:00,
2016-02-06 05:35:00,26.4,21.4,30.35,NE,51,0.0,0.0,81,0.00,,,0.00,0,wxd,2016-02-06 10:35:00,
2016-02-06 05:40:00,26.4,20.8,30.35,NE,51,0.0,0.0,79,0.00,,,0.00,0,wxd,2016-02-06 10:40:00,
2016-02-06 05:45:00,26.4,20.5,30.35,NE,51,0.0,0.0,78,0.00,,,0.00,0,wxd,2016-02-06 10:45:00,
2016-02-06 05:50:00,26.4,20.5,30.35,NE,51,0.0,0.0,78,0.00,,,0.00,0,wxd,2016-02-06 10:50:00,
2016-02-06 05:55:00,26.6,20.7,30.35,NE,51,0.0,0.0,78,0.00,,,0.00,0,wxd,2016-02-06 10:55:00,
2016-02-06 06:05:00,26.7,20.5,30.35,NE,51,0.0,0.0,77,0.00,,,0.00,0,wxd,2016-02-06 11:05:00,
2016-02-06 06:10:00,26.7,21.1,30.35,NE,51,0.0,0.0,79,0.00,,,0.00,0,wxd,2016-02-06 11:10:00,
2016-02-06 06:15:00,26.7,21.7,30.35,NE,51,0.0,0.0,81,0.00,,,0.00,0,wxd,2016-02-06 11:15:00,
2016-02-06 06:25:00,26.7,22.0,30.35,NE,51,0.0,0.0,82,0.00,,,0.00,0,wxd,2016-02-06 11:25:00,
2016-02-06 06:30:00,26.7,21.7,30.35,NE,51,0.0,0.0,81,0.00,,,0.00,0,wxd,2016-02-06 11:30:00,
2016-02-06 06:35:00,26.7,21.1,30.35,NE,51,0.0,0.0,79,0.00,,,0.00,0,wxd,2016-02-06 11:35:00,
2016-02-06 06:40:00,26.6,21.0,30.35,NE,51,0.0,0.0,79,0.00,,,0.00,0,wxd,2016-02-06 11:40:00,
2016-02-06 06:45:00,26.7,21.1,30.35,NE,51,0.0,0.0,79,0.00,,,0.00,0,wxd,2016-02-06 11:45:00,
2016-02-06 06:50:00,26.9,21.3,30.35,NE,51,0.0,0.0,79,0.00,,,0.00,0,wxd,2016-02-06 11:50:00,
2016-02-06 07:00:00,27.0,20.2,30.36,NE,51,0.0,0.0,75,0.00,,,0.00,0,wxd,2016-02-06 12:00:00,
2016-02-06 07:05:00,26.9,20.1,30.36,NE,51,0.0,0.0,75,0.00,,,0.00,0,wxd,2016-02-06 12:05:00,
2016-02-06 07:10:00,26.7,20.5,30.36,NE,51,0.0,0.0,77,0.00,,,0.00,0,wxd,2016-02-06 12:10:00,
2016-02-06 07:15:00,26.9,21.6,30.36,NE,51,0.0,0.0,80,0.00,,,0.00,0,wxd,2016-02-06 12:15:00,
2016-02-06 07:20:00,26.7,20.8,30.36,NE,51,0.0,0.0,78,0.00,,,0.00,0,wxd,2016-02-06 12:20:00,
2016-02-06 07:25:00,26.7,20.5,30.36,NE,51,0.0,0.0,77,0.00,,,0.00,0,wxd,2016-02-06 12:25:00,
2016-02-06 07:30:00,26.7,20.5,30.36,NE,51,0.0,0.0,77,0.00,,,0.00,0,wxd,2016-02-06 12:30:00,
2016-02-06 07:35:00,26.7,20.5,30.36,NE,51,0.0,0.0,77,0.00,,,0.00,7,wxd,2016-02-06 12:35:00,
2016-02-06 07:40:00,26.7,20.2,30.37,NE,51,0.0,0.0,76,0.00,,,0.00,9,wxd,2016-02-06 12:40:00,
2016-02-06 07:45:00,26.6,19.8,30.37,NE,51,0.0,0.0,75,0.00,,,0.00,12,wxd,2016-02-06 12:45:00,
2016-02-06 07:50:00,26.7,20.5,30.37,NE,51,0.0,0.0,77,0.00,,,0.00,14,wxd,2016-02-06 12:50:00,
2016-02-06 07:55:00,26.7,19.9,30.37,NE,51,0.0,0.0,75,0.00,,,0.00,14,wxd,2016-02-06 12:55:00,
2016-02-06 08:05:00,26.9,20.1,30.37,NE,51,0.0,0.0,75,0.00,,,0.00,16,wxd,2016-02-06 13:05:00,
2016-02-06 08:10:00,26.9,19.7,30.37,NE,51,0.0,0.0,74,0.00,,,0.00,19,wxd,2016-02-06 13:10:00,
2016-02-06 08:15:00,27.0,20.2,30.37,NE,51,0.0,0.0,75,0.00,,,0.00,26,wxd,2016-02-06 13:15:00,
2016-02-06 08:20:00,27.2,21.0,30.37,NE,51,0.0,0.0,77,0.00,,,0.00,35,wxd,2016-02-06 13:20:00,
2016-02-06 08:25:00,27.3,20.8,30.37,NE,51,0.0,0.0,76,0.00,,,0.00,53,wxd,2016-02-06 13:25:00,
2016-02-06 08:30:00,27.5,21.9,30.37,NE,51,0.0,0.0,79,0.00,,,0.00,70,wxd,2016-02-06 13:30:00,
2016-02-06 08:35:00,27.8,22.4,30.37,NE,51,0.0,0.0,80,0.00,,,0.00,113,wxd,2016-02-06 13:35:00,
2016-02-06 08:40:00,28.2,22.8,30.38,NE,51,0.0,0.0,80,0.00,,,0.00,90,wxd,2016-02-06 13:40:00,
2016-02-06 08:45:00,28.8,23.4,30.38,NE,51,0.0,1.0,80,0.00,,,0.00,120,wxd,2016-02-06 13:45:00,
2016-02-06 08:50:00,29.7,24.3,30.38,NE,51,0.0,1.0,80,0.00,,,0.00,134,wxd,2016-02-06 13:50:00,
2016-02-06 08:55:00,31.2,23.2,30.38,NE,51,0.0,2.0,72,0.00,,,0.00,141,wxd,2016-02-06 13:55:00,
2016-02-06 09:00:00,32.4,22.7,30.38,NE,51,0.0,2.0,67,0.00,,,0.00,139,wxd,2016-02-06 14:00:00,
2016-02-06 09:05:00,33.2,22.7,30.38,NNE,25,0.0,3.0,65,0.00,,,0.00,165,wxd,2016-02-06 14:05:00,
2016-02-06 09:10:00,34.1,23.2,30.37,NNE,19,0.0,2.0,64,0.00,,,0.00,169,wxd,2016-02-06 14:10:00,
2016-02-06 09:15:00,34.9,23.2,30.37,NNE,17,0.0,2.0,62,0.00,,,0.00,121,wxd,2016-02-06 14:15:00,
2016-02-06 09:20:00,35.3,24.0,30.37,NE,43,0.0,4.0,63,0.00,,,0.00,134,wxd,2016-02-06 14:20:00,
2016-02-06 09:25:00,35.8,24.5,30.37,NNE,27,0.0,2.0,63,0.00,,,0.00,148,wxd,2016-02-06 14:25:00,
2016-02-06 09:30:00,36.2,24.5,30.37,NNE,25,0.0,3.0,62,0.00,,,0.00,213,wxd,2016-02-06 14:30:00,
2016-02-06 09:35:00,36.8,24.2,30.37,NE,40,1.0,3.0,60,0.00,,,0.00,186,wxd,2016-02-06 14:35:00,
2016-02-06 09:45:00,37.3,22.6,30.37,ENE,58,0.0,2.0,55,0.00,,,0.00,134,wxd,2016-02-06 14:45:00,
2016-02-06 09:50:00,37.6,22.9,30.37,NE,53,0.0,3.0,55,0.00,,,0.00,288,wxd,2016-02-06 14:50:00,
2016-02-06 09:55:00,37.8,22.2,30.37,NE,47,1.0,3.0,53,0.00,,,0.00,225,wxd,2016-02-06 14:55:00,
2016-02-06 10:00:00,38.0,22.9,30.37,NE,45,1.0,3.0,54,0.00,,,0.00,239,wxd,2016-02-06 15:00:00,
2016-02-06 10:05:00,38.5,23.3,30.37,NE,43,0.0,2.0,54,0.00,,,0.00,148,wxd,2016-02-06 15:05:00,
2016-02-06 10:10:00,39.2,23.5,30.36,NE,43,0.0,2.0,53,0.00,,,0.00,144,wxd,2016-02-06 15:10:00,
2016-02-06 10:20:00,39.8,23.6,30.36,NE,43,0.0,2.0,52,0.00,,,0.00,197,wxd,2016-02-06 15:20:00,
2016-02-06 10:25:00,39.9,23.7,30.36,NE,43,0.0,2.0,52,0.00,,,0.00,209,wxd,2016-02-06 15:25:00,
2016-02-06 10:30:00,40.2,24.0,30.36,NE,44,0.0,3.0,52,0.00,,,0.00,332,wxd,2016-02-06 15:30:00,
2016-02-06 10:35:00,40.6,23.0,30.36,NE,48,0.0,2.0,49,0.00,,,0.00,336,wxd,2016-02-06 15:35:00,
2016-02-06 10:40:00,41.2,23.5,30.36,NE,36,0.0,3.0,49,0.00,,,0.00,513,wxd,2016-02-06 15:40:00,
2016-02-06 10:45:00,41.8,24.1,30.36,NE,34,0.0,3.0,49,0.00,,,0.00,392,wxd,2016-02-06 15:45:00,
2016-02-06 10:50:00,42.2,23.4,30.36,NE,41,0.0,3.0,47,0.00,,,0.00,353,wxd,2016-02-06 15:50:00,
2016-02-06 10:55:00,42.9,23.6,30.35,NNE,19,0.0,2.0,46,0.00,,,0.00,439,wxd,2016-02-06 15:55:00,
2016-02-06 11:00:00,43.3,22.3,30.35,NNE,32,0.0,2.0,43,0.00,,,0.00,218,wxd,2016-02-06 16:00:00,
2016-02-06 11:05:00,43.5,23.6,30.35,NE,45,0.0,2.0,45,0.00,,,0.00,359,wxd,2016-02-06 16:05:00,
2016-02-06 11:15:00,44.1,22.5,30.35,NE,55,1.0,4.0,42,0.00,,,0.00,534,wxd,2016-02-06 16:15:00,
2016-02-06 11:20:00,44.6,22.9,30.35,ENE,73,0.0,3.0,42,0.00,,,0.00,589,wxd,2016-02-06 16:20:00,
2016-02-06 11:25:00,45.1,23.4,30.35,East,85,0.0,2.0,42,0.00,,,0.00,636,wxd,2016-02-06 16:25:00,
2016-02-06 11:30:00,45.7,22.2,30.35,ENE,66,1.0,3.0,39,0.00,,,0.00,689,wxd,2016-02-06 16:30:00,
2016-02-06 11:35:00,45.8,21.0,30.35,NNE,21,1.0,4.0,37,0.00,,,0.00,740,wxd,2016-02-06 16:35:00,
2016-02-06 11:40:00,46.0,22.4,30.34,NE,35,1.0,4.0,39,0.00,,,0.00,482,wxd,2016-02-06 16:40:00,
2016-02-06 11:45:00,46.2,21.4,30.34,NNW,328,0.0,5.0,37,0.00,,,0.00,366,wxd,2016-02-06 16:45:00,
2016-02-06 11:50:00,46.2,21.4,30.34,NNW,340,1.0,3.0,37,0.00,,,0.00,376,wxd,2016-02-06 16:50:00,
2016-02-06 11:55:00,46.2,20.1,30.33,NNE,19,1.0,4.0,35,0.00,,,0.00,480,wxd,2016-02-06 16:55:00,
2016-02-06 12:05:00,46.5,20.3,30.33,ENE,62,1.0,4.0,35,0.00,,,0.00,599,wxd,2016-02-06 17:05:00,
2016-02-06 12:10:00,46.8,20.6,30.33,ENE,65,0.0,2.0,35,0.00,,,0.00,464,wxd,2016-02-06 17:10:00,
2016-02-06 12:15:00,46.8,19.2,30.33,ENE,64,1.0,4.0,33,0.00,,,0.00,381,wxd,2016-02-06 17:15:00,
2016-02-06 12:20:00,47.0,18.7,30.33,NE,39,1.0,5.0,32,0.00,,,0.00,473,wxd,2016-02-06 17:20:00,
2016-02-06 12:25:00,47.4,18.3,30.32,NW,322,0.0,2.0,31,0.00,,,0.00,418,wxd,2016-02-06 17:25:00,
2016-02-06 12:30:00,48.0,20.3,30.32,NNW,332,0.0,3.0,33,0.00,,,0.00,413,wxd,2016-02-06 17:30:00,
2016-02-06 12:35:00,48.0,20.3,30.32,NE,40,1.0,4.0,33,0.00,,,0.00,248,wxd,2016-02-06 17:35:00,
2016-02-06 12:40:00,47.9,18.7,30.30,NNE,26,0.0,3.0,31,0.00,,,0.00,392,wxd,2016-02-06 17:40:00,
2016-02-06 12:45:00,48.2,19.0,30.30,East,93,0.0,3.0,31,0.00,,,0.00,216,wxd,2016-02-06 17:45:00,
2016-02-06 12:50:00,48.5,19.3,30.30,WNW,284,0.0,3.0,31,0.00,,,0.00,359,wxd,2016-02-06 17:50:00,
2016-02-06 12:55:00,48.6,18.6,30.29,NNE,23,0.0,3.0,30,0.00,,,0.00,132,wxd,2016-02-06 17:55:00,
2016-02-06 13:00:00,48.2,19.0,30.29,NE,35,1.0,4.0,31,0.00,,,0.00,258,wxd,2016-02-06 18:00:00,
2016-02-06 13:05:00,48.2,18.2,30.29,NE,47,1.0,3.0,30,0.00,,,0.00,188,wxd,2016-02-06 18:05:00,
2016-02-06 13:10:00,48.3,19.1,30.28,NNE,23,1.0,5.0,31,0.00,,,0.00,197,wxd,2016-02-06 18:10:00,
2016-02-06 13:15:00,48.5,19.3,30.28,NE,42,1.0,4.0,31,0.00,,,0.00,243,wxd,2016-02-06 18:15:00,
2016-02-06 13:20:00,48.8,18.8,30.28,NNE,14,1.0,6.0,30,0.00,,,0.00,174,wxd,2016-02-06 18:20:00,
2016-02-06 13:25:00,48.8,19.5,30.27,West,265,0.0,1.0,31,0.00,,,0.00,181,wxd,2016-02-06 18:25:00,
2016-02-06 13:30:00,49.2,20.6,30.27,North,3,1.0,5.0,32,0.00,,,0.00,165,wxd,2016-02-06 18:30:00,
2016-02-06 13:35:00,48.9,18.8,30.27,ENE,58,0.0,4.0,30,0.00,,,0.00,195,wxd,2016-02-06 18:35:00,
2016-02-06 13:40:00,49.1,18.2,30.26,ENE,73,1.0,4.0,29,0.00,,,0.00,313,wxd,2016-02-06 18:40:00,
2016-02-06 13:45:00,49.4,17.7,30.26,NNE,23,1.0,5.0,28,0.00,,,0.00,213,wxd,2016-02-06 18:45:00,
2016-02-06 13:50:00,49.5,17.8,30.26,North,0,1.0,6.0,28,0.00,,,0.00,156,wxd,2016-02-06 18:50:00,
2016-02-06 13:55:00,49.6,20.2,30.26,NNW,345,0.0,2.0,31,0.00,,,0.00,204,wxd,2016-02-06 18:55:00,
2016-02-06 14:00:00,49.8,19.6,30.26,NE,39,1.0,4.0,30,0.00,,,0.00,199,wxd,2016-02-06 19:00:00,
2016-02-06 14:05:00,49.9,19.7,30.26,ENE,58,2.0,4.0,30,0.00,,,0.00,408,wxd,2016-02-06 19:05:00,
2016-02-06 14:10:00,50.1,18.3,30.25,NE,34,1.0,5.0,28,0.00,,,0.00,362,wxd,2016-02-06 19:10:00,
2016-02-06 14:15:00,49.9,18.1,30.25,NE,40,2.0,6.0,28,0.00,,,0.00,311,wxd,2016-02-06 19:15:00,
2016-02-06 14:25:00,49.8,18.8,30.24,ENE,63,2.0,4.0,29,0.00,,,0.00,248,wxd,2016-02-06 19:25:00,
2016-02-06 14:30:00,49.8,18.8,30.24,ENE,70,2.0,5.0,29,0.00,,,0.00,295,wxd,2016-02-06 19:30:00,
2016-02-06 14:35:00,49.9,18.1,30.24,ENE,57,2.0,5.0,28,0.00,,,0.00,174,wxd,2016-02-06 19:35:00,
2016-02-06 14:40:00,49.8,18.0,30.23,NE,44,1.0,4.0,28,0.00,,,0.00,301,wxd,2016-02-06 19:40:00,
2016-02-06 14:45:00,49.8,18.8,30.23,NE,38,1.0,4.0,29,0.00,,,0.00,216,wxd,2016-02-06 19:45:00,
2016-02-06 14:50:00,49.9,19.7,30.23,NNE,19,0.0,3.0,30,0.00,,,0.00,380,wxd,2016-02-06 19:50:00,
2016-02-06 14:55:00,50.1,18.3,30.23,NNE,27,1.0,5.0,28,0.00,,,0.00,165,wxd,2016-02-06 19:55:00,
2016-02-06 15:00:00,50.2,18.4,30.23,NNE,26,2.0,6.0,28,0.00,,,0.00,292,wxd,2016-02-06 20:00:00,
2016-02-06 15:05:00,50.1,17.4,30.23,NE,42,2.0,4.0,27,0.00,,,0.00,283,wxd,2016-02-06 20:05:00,
2016-02-06 15:10:00,49.9,18.1,30.22,NE,42,1.0,4.0,28,0.00,,,0.00,237,wxd,2016-02-06 20:10:00,
2016-02-06 15:15:00,50.1,19.1,30.22,NNE,18,1.0,5.0,29,0.00,,,0.00,445,wxd,2016-02-06 20:15:00,
2016-02-06 15:20:00,49.9,18.1,30.22,NE,49,2.0,4.0,28,0.00,,,0.00,174,wxd,2016-02-06 20:20:00,
2016-02-06 15:25:00,49.6,17.9,30.21,ENE,64,2.0,5.0,28,0.00,,,0.00,260,wxd,2016-02-06 20:25:00,
2016-02-06 15:30:00,49.6,18.7,30.21,NE,50,1.0,4.0,29,0.00,,,0.00,98,wxd,2016-02-06 20:30:00,
2016-02-06 15:35:00,49.6,17.9,30.21,NE,40,1.0,4.0,28,0.00,,,0.00,139,wxd,2016-02-06 20:35:00,
2016-02-06 15:40:00,49.8,18.8,30.21,NE,45,1.0,5.0,29,0.00,,,0.00,95,wxd,2016-02-06 20:40:00,
2016-02-06 15:45:00,49.5,17.8,30.21,NE,46,2.0,5.0,28,0.00,,,0.00,135,wxd,2016-02-06 20:45:00,
2016-02-06 15:50:00,49.2,17.5,30.21,NE,52,1.0,4.0,28,0.00,,,0.00,62,wxd,2016-02-06 20:50:00,
2016-02-06 15:55:00,48.9,17.2,30.20,NNE,30,1.0,5.0,28,0.00,,,0.00,125,wxd,2016-02-06 20:55:00,
2016-02-06 16:00:00,48.9,17.2,30.20,NNE,31,1.0,3.0,28,0.00,,,0.00,118,wxd,2016-02-06 21:00:00,
2016-02-06 16:05:00,49.1,17.4,30.20,NNE,21,0.0,2.0,28,0.00,,,0.00,102,wxd,2016-02-06 21:05:00,
2016-02-06 16:10:00,49.2,17.5,30.22,ENE,76,1.0,4.0,28,0.00,,,0.00,90,wxd,2016-02-06 21:10:00,
2016-02-06 16:15:00,49.1,18.2,30.22,NE,49,1.0,3.0,29,0.00,,,0.00,72,wxd,2016-02-06 21:15:00,
2016-02-06 16:20:00,49.1,18.2,30.22,NNE,22,0.0,2.0,29,0.00,,,0.00,69,wxd,2016-02-06 21:20:00,
2016-02-06 16:25:00,49.1,19.0,30.22,NNE,27,1.0,3.0,30,0.00,,,0.00,65,wxd,2016-02-06 21:25:00,
2016-02-06 16:30:00,49.1,19.0,30.22,NE,38,0.0,3.0,30,0.00,,,0.00,63,wxd,2016-02-06 21:30:00,
2016-02-06 16:35:00,48.9,18.8,30.22,NNE,28,1.0,5.0,30,0.00,,,0.00,63,wxd,2016-02-06 21:35:00,
2016-02-06 16:40:00,48.9,18.1,30.22,NNE,18,1.0,3.0,29,0.00,,,0.00,63,wxd,2016-02-06 21:40:00,
2016-02-06 16:45:00,48.9,21.1,30.22,NNE,31,1.0,5.0,33,0.00,,,0.00,60,wxd,2016-02-06 21:45:00,
2016-02-06 16:50:00,48.8,19.5,30.22,NE,56,1.0,4.0,31,0.00,,,0.00,56,wxd,2016-02-06 21:50:00,
2016-02-06 16:55:00,48.8,19.5,30.22,NE,48,0.0,3.0,31,0.00,,,0.00,39,wxd,2016-02-06 21:55:00,
2016-02-06 17:00:00,48.6,19.3,30.22,ENE,57,1.0,3.0,31,0.00,,,0.00,28,wxd,2016-02-06 22:00:00,
2016-02-06 17:05:00,48.5,19.3,30.22,NE,53,1.0,4.0,31,0.00,,,0.00,26,wxd,2016-02-06 22:05:00,
2016-02-06 17:10:00,48.3,18.3,30.22,NE,54,1.0,3.0,30,0.00,,,0.00,16,wxd,2016-02-06 22:10:00,
2016-02-06 17:15:00,48.3,19.1,30.22,NE,37,0.0,1.0,31,0.00,,,0.00,12,wxd,2016-02-06 22:15:00,
2016-02-06 17:20:00,48.2,19.7,30.22,NE,45,0.0,2.0,32,0.00,,,0.00,9,wxd,2016-02-06 22:20:00,
2016-02-06 17:25:00,48.0,18.8,30.22,ENE,62,1.0,3.0,31,0.00,,,0.00,11,wxd,2016-02-06 22:25:00,
2016-02-06 17:30:00,48.0,20.3,30.22,NE,44,0.0,3.0,33,0.00,,,0.00,11,wxd,2016-02-06 22:30:00,
2016-02-06 17:35:00,47.9,20.9,30.22,ENE,57,0.0,1.0,34,0.00,,,0.00,9,wxd,2016-02-06 22:35:00,
2016-02-06 17:40:00,47.9,20.9,30.22,ENE,57,0.0,1.0,34,0.00,,,0.00,5,wxd,2016-02-06 22:40:00,
2016-02-06 17:45:00,47.7,21.4,30.22,ENE,57,0.0,1.0,35,0.00,,,0.00,0,wxd,2016-02-06 22:45:00,
2016-02-06 17:50:00,47.7,21.4,30.22,ENE,57,0.0,0.0,35,0.00,,,0.00,0,wxd,2016-02-06 22:50:00,
2016-02-06 17:55:00,47.6,22.0,30.23,ENE,67,0.0,3.0,36,0.00,,,0.00,0,wxd,2016-02-06 22:55:00,
2016-02-06 18:00:00,47.6,22.6,30.23,SE,128,0.0,2.0,37,0.00,,,0.00,0,wxd,2016-02-06 23:00:00,
2016-02-06 18:15:00,47.1,22.8,30.22,SE,124,0.0,2.0,38,0.00,,,0.00,0,wxd,2016-02-06 23:15:00,
2016-02-06 18:20:00,47.0,21.4,30.22,ESE,123,0.0,2.0,36,0.00,,,0.00,0,wxd,2016-02-06 23:20:00,
2016-02-06 18:25:00,47.0,21.4,30.22,ESE,111,0.0,3.0,36,0.00,,,0.00,0,wxd,2016-02-06 23:25:00,
2016-02-06 18:30:00,46.8,21.3,30.22,East,94,0.0,2.0,36,0.00,,,0.00,0,wxd,2016-02-06 23:30:00,
2016-02-06 18:35:00,46.7,22.5,30.22,East,92,1.0,4.0,38,0.00,,,0.00,0,wxd,2016-02-06 23:35:00,
2016-02-06 18:40:00,46.4,23.4,30.20,East,87,1.0,3.0,40,0.00,,,0.00,0,wxd,2016-02-06 23:40:00,
2016-02-06 18:45:00,46.2,22.6,30.20,East,84,1.0,3.0,39,0.00,,,0.00,0,wxd,2016-02-06 23:45:00,
2016-02-06 18:50:00,46.1,21.9,30.20,East,91,1.0,3.0,38,0.00,,,0.00,0,wxd,2016-02-06 23:50:00,
2016-02-06 18:55:00,46.1,21.9,30.21,ENE,73,0.0,3.0,38,0.00,,,0.00,0,wxd,2016-02-06 23:55:00,
2016-02-06 19:00:00,46.0,22.4,30.21,ENE,71,0.0,2.0,39,0.00,,,0.00,0,wxd,2016-02-07 00:00:00,
2016-02-06 19:05:00,46.0,23.6,30.21,ENE,71,0.0,1.0,41,0.00,,,0.00,0,wxd,2016-02-07 00:05:00,
2016-02-06 19:10:00,46.0,21.8,30.21,ENE,71,0.0,3.0,38,0.00,,,0.00,0,wxd,2016-02-07 00:10:00,
2016-02-06 19:15:00,46.0,22.4,30.21,ENE,71,0.0,3.0,39,0.00,,,0.00,0,wxd,2016-02-07 00:15:00,
2016-02-06 19:20:00,46.0,21.8,30.21,ENE,71,0.0,2.0,38,0.00,,,0.00,0,wxd,2016-02-07 00:20:00,
2016-02-06 19:25:00,46.0,23.6,30.20,ENE,72,0.0,1.0,41,0.00,,,0.00,0,wxd,2016-02-07 00:25:00,
2016-02-06 19:30:00,45.8,22.9,30.20,ENE,72,0.0,2.0,40,0.00,,,0.00,0,wxd,2016-02-07 00:30:00,
2016-02-06 19:45:00,45.8,22.9,30.20,East,101,0.0,2.0,40,0.00,,,0.00,0,wxd,2016-02-07 00:45:00,
2016-02-06 19:50:00,45.8,22.3,30.20,East,92,0.0,2.0,39,0.00,,,0.00,0,wxd,2016-02-07 00:50:00,
2016-02-06 19:55:00,45.8,22.3,30.21,ENE,75,0.0,1.0,39,0.00,,,0.00,0,wxd,2016-02-07 00:55:00,
2016-02-06 20:00:00,45.8,21.7,30.21,ENE,75,0.0,1.0,38,0.00,,,0.00,0,wxd,2016-02-07 01:00:00,
2016-02-06 20:05:00,45.8,21.7,30.21,ENE,75,0.0,1.0,38,0.00,,,0.00,0,wxd,2016-02-07 01:05:00,
2016-02-06 20:10:00,45.8,21.7,30.21,ENE,75,0.0,1.0,38,0.00,,,0.00,0,wxd,2016-02-07 01:10:00,
2016-02-06 20:15:00,45.8,22.3,30.21,ENE,75,0.0,0.0,39,0.00,,,0.00,0,wxd,2016-02-07 01:15:00,
2016-02-06 20:30:00,45.7,21.6,30.21,ENE,75,0.0,1.0,38,0.00,,,0.00,0,wxd,2016-02-07 01:30:00,
2016-02-06 20:35:00,45.5,23.8,30.21,ENE,75,0.0,2.0,42,0.00,,,0.00,0,wxd,2016-02-07 01:35:00,
2016-02-06 20:40:00,45.4,25.8,30.20,ENE,75,0.0,2.0,46,0.00,,,0.00,0,wxd,2016-02-07 01:40:00,
2016-02-06 20:45:00,45.2,22.9,30.20,ENE,75,0.0,2.0,41,0.00,,,0.00,0,wxd,2016-02-07 01:45:00,
2016-02-06 20:50:00,45.2,22.9,30.20,ENE,75,0.0,2.0,41,0.00,,,0.00,0,wxd,2016-02-07 01:50:00,
2016-02-06 20:55:00,45.1,22.2,30.19,ENE,75,0.0,2.0,40,0.00,,,0.00,0,wxd,2016-02-07 01:55:00,
2016-02-06 21:00:00,45.1,21.6,30.19,ENE,75,0.0,1.0,39,0.00,,,0.00,0,wxd,2016-02-07 02:00:00,
2016-02-06 21:05:00,45.1,22.2,30.19,ENE,75,0.0,2.0,40,0.00,,,0.00,0,wxd,2016-02-07 02:05:00,
2016-02-06 21:10:00,45.1,22.8,30.20,ENE,75,0.0,1.0,41,0.00,,,0.00,0,wxd,2016-02-07 02:10:00,
2016-02-06 21:15:00,44.9,23.8,30.20,ENE,75,0.0,0.0,43,0.00,,,0.00,0,wxd,2016-02-07 02:15:00,
2016-02-06 21:20:00,44.8,22.6,30.20,ENE,75,0.0,0.0,41,0.00,,,0.00,0,wxd,2016-02-07 02:20:00,
2016-02-06 21:25:00,44.8,22.6,30.19,ENE,75,0.0,0.0,41,0.00,,,0.00,0,wxd,2016-02-07 02:25:00,
2016-02-06 21:30:00,44.8,22.6,30.19,ENE,75,0.0,1.0,41,0.00,,,0.00,0,wxd,2016-02-07 02:30:00,
2016-02-06 21:35:00,44.8,21.4,30.19,ENE,75,0.0,1.0,39,0.00,,,0.00,0,wxd,2016-02-07 02:35:00,
2016-02-06 21:40:00,44.8,22.6,30.18,ENE,75,0.0,1.0,41,0.00,,,0.00,0,wxd,2016-02-07 02:40:00,
2016-02-06 21:45:00,44.6,25.6,30.18,ENE,75,0.0,1.0,47,0.00,,,0.00,0,wxd,2016-02-07 02:45:00,
2016-02-06 21:50:00,44.5,24.5,30.18,ENE,75,0.0,1.0,45,0.00,,,0.00,0,wxd,2016-02-07 02:50:00,
2016-02-06 21:55:00,44.3,23.8,30.17,ENE,75,0.0,1.0,44,0.00,,,0.00,0,wxd,2016-02-07 02:55:00,
2016-02-06 22:05:00,44.3,22.1,30.17,ENE,75,0.0,1.0,41,0.00,,,0.00,0,wxd,2016-02-07 03:05:00,
2016-02-06 22:10:00,44.2,24.7,30.17,ENE,75,0.0,1.0,46,0.00,,,0.00,0,wxd,2016-02-07 03:10:00,
2016-02-06 22:15:00,44.1,24.1,30.17,ENE,75,0.0,1.0,45,0.00,,,0.00,0,wxd,2016-02-07 03:15:00,
2016-02-06 22:20:00,43.9,22.9,30.17,ENE,75,0.0,1.0,43,0.00,,,0.00,0,wxd,2016-02-07 03:20:00,
2016-02-06 22:25:00,43.8,23.9,30.17,ENE,75,0.0,1.0,45,0.00,,,0.00,0,wxd,2016-02-07 03:25:00,
2016-02-06 22:30:00,43.8,24.4,30.17,ENE,75,0.0,1.0,46,0.00,,,0.00,0,wxd,2016-02-07 03:30:00,
2016-02-06 22:35:00,43.6,23.1,30.17,ENE,75,0.0,1.0,44,0.00,,,0.00,0,wxd,2016-02-07 03:35:00,
2016-02-06 22:40:00,43.8,23.9,30.16,ENE,75,0.0,1.0,45,0.00,,,0.00,0,wxd,2016-02-07 03:40:00,
2016-02-06 22:45:00,43.8,24.4,30.16,ENE,75,0.0,0.0,46,0.00,,,0.00,0,wxd,2016-02-07 03:45:00,
2016-02-06 22:50:00,43.8,24.4,30.16,ENE,75,0.0,0.0,46,0.00,,,0.00,0,wxd,2016-02-07 03:50:00,
2016-02-06 22:55:00,43.8,24.4,30.16,ENE,75,0.0,2.0,46,0.00,,,0.00,0,wxd,2016-02-07 03:55:00,
2016-02-06 23:00:00,43.8,22.2,30.16,ENE,75,0.0,2.0,42,0.00,,,0.00,0,wxd,2016-02-07 04:00:00,
2016-02-06 23:05:00,43.8,22.8,30.16,ENE,75,0.0,3.0,43,0.00,,,0.00,0,wxd,2016-02-07 04:05:00,
2016-02-06 23:10:00,43.8,23.9,30.16,ENE,75,0.0,2.0,45,0.00,,,0.00,0,wxd,2016-02-07 04:10:00,
2016-02-06 23:15:00,43.8,22.2,30.16,ENE,75,0.0,2.0,42,0.00,,,0.00,0,wxd,2016-02-07 04:15:00,
2016-02-06 23:20:00,43.6,23.1,30.16,ENE,74,0.0,3.0,44,0.00,,,0.00,0,wxd,2016-02-07 04:20:00,
2016-02-06 23:25:00,43.6,22.6,30.15,ENE,74,0.0,2.0,43,0.00,,,0.00,0,wxd,2016-02-07 04:25:00,
2016-02-06 23:30:00,43.5,24.6,30.15,ENE,74,0.0,1.0,47,0.00,,,0.00,0,wxd,2016-02-07 04:30:00,